Regional Weather Roundup
Issued by NWS

Home | Current Version | Previous Version | Graphics & Text | Print | Product List | Glossary On
Versions: 1 2 3 4 5 6 7 8 9 10 11 12 13 14 15 16 17 18 19 20 21 22 23 24 25 26 27 28 29 30 31 32 33 34 35 36 37 38 39 40 41 42 43 44 45 46 47 48 49 50
000
ASUS43 KDMX 220506
RWRIA

WEATHER ROUNDUP FOR IOWA
NATIONAL WEATHER SERVICE DES MOINES IA
1200 AM CDT SUN OCT 22 2017

NOTE: "FAIR" INDICATES FEW OR NO CLOUDS BELOW 12,000 FEET WITH NO
SIGNIFICANT WEATHER AND/OR OBSTRUCTIONS TO VISIBILITY.

* - THESE STATIONS ARE NOT NWS STATIONS...THUS NOT UNDER NWS
QUALITY CONTROL.  THEY ALSO DO NOT REPORT WEATHER SUCH
AS PRECIPITATION OR FOG.

IAZ001>003-012>014-020>022-031>034-043>046-220600-
   NORTHWEST IOWA

CITY           SKY/WX    TMP DP  RH WIND       PRES   REMARKS
CHEROKEE *     MOCLDY    44  40  88 CALM      29.96R
DENISON *      CLOUDY    48  41  76 CALM      29.99S
LE MARS *      CLOUDY    41  39  93 CALM      29.95F
ORANGE CITY *  PTCLDY    43  39  87 W6        29.94F
SHELDON *      CLEAR     41  39  93 W6        29.93R
SIOUX CITY     PTCLDY    42  39  89 CALM      29.97R
SPENCER        CLOUDY    44  40  85 SW5       29.95R
STORM LAKE *   CLOUDY    45  41  87 W5        29.96R
$$

IAZ055>058-069>071-079>083-090>094-220600-
   SOUTHWEST IOWA

CITY           SKY/WX    TMP DP  RH WIND       PRES   REMARKS
ATLANTIC *     MOCLDY    52  43  71 NW6       29.97F
AUDUBON *      CLOUDY    50  45  81 NW3       29.98F
CLARINDA *       N/A     52  45  76 N7        30.00S
COUNCIL BLFS * CLOUDY    50  41  71 CALM      29.98S
CRESTON *      CLOUDY    50  46  87 NW8       29.97F
HARLAN  *      CLOUDY    48  45  87 CALM      30.01F
LAMONI         RAIN      52  50  93 NW13      29.94F
RED OAK *      CLOUDY    54  43  66 NW6       29.99F
SHENANDOAH *   CLOUDY    54  41  62 N5        29.99S
$$

IAZ047>049-059>061-072>074-084-220600-
   CENTRAL IOWA

CITY           SKY/WX    TMP DP  RH WIND       PRES   REMARKS
AMES           CLOUDY    52  49  89 NW12      29.92F
ANKENY *       CLOUDY    52  48  87 NW10      29.94F
BOONE *        CLOUDY    52  45  76 NW14      29.93F
CHARITON *     HVY RAIN  52  50  93 NW15G23   29.92S
DES MOINES     LGT RAIN  53  49  86 NW13      29.93F
GRINNELL*      RAIN      54  51  92 NW16G22   29.91R
KNOXVILLE *    LGT RAIN  54  52  94 W12G17    29.92R
MARSHALLTOWN   RAIN      53  51  93 NW17      29.88S
NEWTON *       CLOUDY    54  52  94 NW16      29.91R
PELLA *        RAIN      53  51  93 NW14      29.92S
PERRY *        MOCLDY    52  46  80 NW5       29.96S
$$

IAZ004>006-015-016-023>025-035-036-220600-
   NORTH CENTRAL IOWA

CITY           SKY/WX    TMP DP  RH WIND       PRES   REMARKS
ALGONA *       CLOUDY    50  46  87 W7        29.94R
CLARION *      CLOUDY    52  48  87 NW8       29.94R
ESTHERVILLE    MOCLDY    45  42  89 W6        29.93R
FORT DODGE *   CLOUDY    51  43  74 NW3       29.95R
MASON CITY     CLOUDY    51  45  79 NW13      29.93R
FOREST CITY *    N/A     52  45  76 NW8       29.92R
WEBSTER CITY * CLOUDY    52  45  76 NW9       29.92S
IOWA FALLS *   CLOUDY    53  49  86 W12       29.94R
$$

IAZ007>011-017>019-026>030-037>042-050>054-066-220600-
   NORTHEAST IOWA

CITY           SKY/WX    TMP DP  RH WIND       PRES   REMARKS
CEDAR RAPIDS   LGT RAIN  62  60  93 SW6       29.87R
CHARLES CITY * DRIZZLE   54  54 100 NW9G16    29.88F
CLINTON *      PTCLDY    68  59  73 S16       29.88F
DECORAH *      RAIN      61  61 100 W12G20    29.83S
DUBUQUE        CLOUDY    67  60  78 S14       29.86F
MONTICELLO *   DRIZZLE   64  59  82 W10G24    29.86R
OELWEIN *      LGT RAIN  57  57 100 W22       29.87S
WATERLOO       LGT RAIN  54  52  93 W9        29.89R
$$

IAZ064-065-067-068-078-220600-
   EAST CENTRAL IOWA

CITY           SKY/WX    TMP DP  RH WIND       PRES   REMARKS
DAVENPORT      MOCLDY    70  58  65 S16G23    29.89F
IOWA CITY      HVY RAIN  63  60  90 SW9       29.90R FOG
MUSCATINE *    CLOUDY    66  59  77 W14G24    29.90R
QUAD CITIES    CLOUDY    71  57  61 S15G23    29.87F
$$

IAZ062-063-075>077-085>089-095>099-220600-
   SOUTHEAST IOWA

CITY           SKY/WX    TMP DP  RH WIND       PRES   REMARKS
BURLINGTON     CLOUDY    70  62  76 S9        29.87F
FAIRFIELD *    CLOUDY    61  59  94 CALM      29.88F FOG
FORT MADISON * PTCLDY    70  63  78 S7        29.88F
KEOKUK *       CLOUDY    73  63  68 S12G20    29.86F
OSKALOOSA *    RAIN      55  53  94 NW13      29.91S
OTTUMWA        LGT RAIN  57  56  96 NW21G26   29.90F
WASHINGTON *   CLOUDY    61  61 100 S6G13     29.91R FOG
$$

ABBREVIATIONS USED IN REMARKS
   TC - TEMPERATURES IN CELSIUS
  WCI - WIND CHILL INDEX
   HX - HEAT INDEX
  VSB - VISIBILITY
$$




USA.gov is the U.S. government's official web portal to all federal, state and local government web resources and services.